• In France
  • List of Countries
  • For 7 days
  • Water Temperature
  • Satellite Maps
  • Weather Map
  • Weather Widgets
  • user-avatar
    Login

    Hourly Weather Midlothian

    Today, 20 November, Monday

    Time Temperature Precipitation Wind Pressure Humidity
    00:00 +1°C° 0 mm 3 mps 736 mmHg 92%
    01:00 +2°C° 0.8 mm 3 mps 735 mmHg 93%
    02:00 +1°C° 0.8 mm 4 mps 735 mmHg 94%
    03:00 +3°C° 0.8 mm 4 mps 734 mmHg 96%
    04:00 +3°C° 0.7 mm 4 mps 733 mmHg 96%
    05:00 +4°C° 0.7 mm 4 mps 732 mmHg 96%
    06:00 +4°C° 0 mm 3 mps 732 mmHg 95%
    07:00 +4°C° 0.8 mm 3 mps 731 mmHg 96%
    08:00 +5°C° 0.8 mm 3 mps 731 mmHg 96%
    09:00 +5°C° 0.8 mm 3 mps 730 mmHg 97%
    10:00 +7°C° 0.9 mm 3 mps 730 mmHg 96%
    11:00 +7°C° 0.9 mm 2 mps 730 mmHg 96%
    12:00 +7°C° 0.9 mm 2 mps 730 mmHg 95%
    13:00 +7°C° 0 mm 2 mps 730 mmHg 95%
    14:00 +7°C° 0 mm 2 mps 730 mmHg 95%
    15:00 +8°C° 0 mm 3 mps 730 mmHg 95%
    16:00 +7°C° 0.1 mm 2 mps 731 mmHg 95%
    17:00 +7°C° 0.1 mm 2 mps 731 mmHg 96%
    18:00 +8°C° 0.1 mm 1 mps 731 mmHg 97%
    19:00 +8°C° 0.1 mm 1 mps 731 mmHg 97%
    20:00 +8°C° 0.1 mm 1 mps 731 mmHg 97%
    21:00 +8°C° 0.1 mm 1 mps 731 mmHg 97%
    22:00 +8°C° 0.1 mm 1 mps 731 mmHg 97%
    23:00 +7°C° 0.1 mm 2 mps 731 mmHg 97%

    Tomorrow, 21 November, Tuesday

    Time Temperature Precipitation Wind Pressure Humidity
    00:00 +7°C° 0.1 mm 2 mps 731 mmHg 97%
    01:00 +7°C° 0.5 mm 2 mps 730 mmHg 97%
    02:00 +7°C° 0.5 mm 2 mps 730 mmHg 97%
    03:00 +7°C° 0.5 mm 2 mps 729 mmHg 97%
    04:00 +7°C° 1.3 mm 2 mps 729 mmHg 97%
    05:00 +7°C° 1.3 mm 2 mps 728 mmHg 97%
    06:00 +7°C° 1.3 mm 2 mps 728 mmHg 97%
    07:00 +8°C° 0.9 mm 2 mps 728 mmHg 97%
    08:00 +9°C° 0.9 mm 2 mps 727 mmHg 96%
    09:00 +9°C° 0.9 mm 3 mps 727 mmHg 96%
    10:00 +10°C° 0.5 mm 3 mps 726 mmHg 95%
    11:00 +10°C° 0.5 mm 4 mps 726 mmHg 95%
    12:00 +10°C° 0.5 mm 4 mps 725 mmHg 94%
    13:00 +9°C° 0.5 mm 5 mps 724 mmHg 93%
    14:00 +9°C° 0.5 mm 5 mps 723 mmHg 92%
    15:00 +8°C° 0.5 mm 6 mps 722 mmHg 92%
    16:00 +9°C° 0.2 mm 6 mps 721 mmHg 92%
    17:00 +9°C° 0.2 mm 6 mps 721 mmHg 92%
    18:00 +10°C° 0.2 mm 6 mps 720 mmHg 93%
    19:00 +10°C° 0.1 mm 6 mps 719 mmHg 92%
    20:00 +10°C° 0.1 mm 7 mps 719 mmHg 92%
    21:00 +10°C° 0.1 mm 7 mps 719 mmHg 92%
    22:00 +10°C° 0.2 mm 7 mps 718 mmHg 91%
    23:00 +10°C° 0.2 mm 7 mps 718 mmHg 91%

    Day after tomorrow, 22 November, Wednesday

    Time Temperature Precipitation Wind Pressure Humidity
    00:00 +10°C° 0.2 mm 8 mps 718 mmHg 91%
    01:00 +10°C° 0.1 mm 7 mps 717 mmHg 90%
    02:00 +10°C° 0.1 mm 7 mps 717 mmHg 90%
    03:00 +9°C° 0.1 mm 7 mps 717 mmHg 90%
    04:00 +9°C° 0 mm 6 mps 717 mmHg 90%
    05:00 +8°C° 0 mm 6 mps 716 mmHg 90%
    06:00 +8°C° 0 mm 5 mps 716 mmHg 90%
    07:00 +8°C° 0 mm 5 mps 717 mmHg 90%
    08:00 +8°C° 0 mm 4 mps 717 mmHg 90%
    09:00 +7°C° 0 mm 4 mps 717 mmHg 90%
    10:00 +8°C° 0.3 mm 3 mps 717 mmHg 91%
    11:00 +8°C° 0.3 mm 2 mps 716 mmHg 91%
    12:00 +9°C° 0.3 mm 1 mps 716 mmHg 91%
    13:00 +8°C° 0.8 mm 2 mps 715 mmHg 92%
    14:00 +8°C° 0.8 mm 2 mps 715 mmHg 93%
    15:00 +7°C° 0.8 mm 2 mps 714 mmHg 94%
    16:00 +7°C° 0.7 mm 3 mps 714 mmHg 94%
    17:00 +6°C° 0.7 mm 4 mps 713 mmHg 94%
    18:00 +6°C° 0.7 mm 5 mps 713 mmHg 94%
    19:00 +5°C° 2.2 mm 5 mps 712 mmHg 94%
    20:00 +4°C° 2.2 mm 6 mps 712 mmHg 94%
    21:00 +4°C° 2.2 mm 7 mps 712 mmHg 94%
    22:00 +4°C° 0.9 mm 6 mps 711 mmHg 94%
    23:00 +5°C° 0.9 mm 5 mps 711 mmHg 94%

    23 November, Thursday

    Time Temperature Precipitation Wind Pressure Humidity
    00:00 +6°C° 0.9 mm 5 mps 711 mmHg 94%
    01:00 +6°C° 0.1 mm 5 mps 711 mmHg 93%
    02:00 +6°C° 0.1 mm 5 mps 711 mmHg 92%
    03:00 +6°C° 0.1 mm 5 mps 711 mmHg 91%
    04:00 +4°C° 0.2 mm 7 mps 711 mmHg 86%
    05:00 +2°C° 0.2 mm 8 mps 712 mmHg 81%
    06:00 +1°C° 0.2 mm 10 mps 713 mmHg 77%
    07:00 +1°C° 0 mm 10 mps 713 mmHg 76%
    08:00 +1°C° 0 mm 10 mps 714 mmHg 75%
    09:00 +1°C° 0 mm 10 mps 715 mmHg 75%
    10:00 +2°C° 0 mm 11 mps 715 mmHg 72%
    11:00 +2°C° 0 mm 12 mps 715 mmHg 70%
    12:00 +3°C° 0 mm 12 mps 715 mmHg 67%
    13:00 +3°C° 0.2 mm 12 mps 715 mmHg 70%
    14:00 +3°C° 0.2 mm 12 mps 715 mmHg 73%
    15:00 +3°C° 0.2 mm 12 mps 715 mmHg 75%
    16:00 +2°C° 0 mm 11 mps 716 mmHg 78%
    17:00 +2°C° 0 mm 9 mps 717 mmHg 81%
    18:00 +2°C° 0 mm 8 mps 718 mmHg 83%
    19:00 +2°C° 0 mm 7 mps 720 mmHg 83%
    20:00 +1°C° 0 mm 6 mps 721 mmHg 83%
    21:00 +1°C° 0 mm 5 mps 723 mmHg 83%
    22:00 0°C° 0 mm 5 mps 724 mmHg 84%
    23:00 -1°C° 0 mm 4 mps 725 mmHg 86%

    24 November, Friday

    Time Temperature Precipitation Wind Pressure Humidity
    00:00 0°C° 0 mm 3 mps 726 mmHg 88%
    01:00 -1°C° 0 mm 3 mps 726 mmHg 88%
    02:00 -1°C° 0 mm 2 mps 726 mmHg 88%
    03:00 +1°C° 0 mm 1 mps 726 mmHg 88%
    04:00 +1°C° 0 mm 1 mps 727 mmHg 87%
    05:00 +1°C° 0 mm 1 mps 727 mmHg 86%
    06:00 +1°C° 0 mm 1 mps 727 mmHg 85%
    07:00 0°C° 0 mm 0 mps 727 mmHg 85%
    08:00 0°C° 0 mm 0 mps 727 mmHg 84%
    09:00 +1°C° 0 mm 0 mps 728 mmHg 83%
    10:00 +3°C° 0 mm 1 mps 728 mmHg 82%
    11:00 +3°C° 0 mm 1 mps 728 mmHg 80%
    12:00 +4°C° 0 mm 1 mps 728 mmHg 78%
    13:00 +4°C° 0.1 mm 1 mps 728 mmHg 81%
    14:00 +3°C° 0.1 mm 2 mps 727 mmHg 83%
    15:00 +2°C° 0.1 mm 2 mps 727 mmHg 85%
    16:00 +2°C° 0 mm 2 mps 728 mmHg 87%
    17:00 0°C° 0 mm 3 mps 728 mmHg 88%
    18:00 -1°C° 0 mm 3 mps 728 mmHg 89%
    19:00 -1°C° 0 mm 3 mps 729 mmHg 88%
    20:00 -3°C° 0 mm 4 mps 729 mmHg 87%
    21:00 -3°C° 0 mm 4 mps 729 mmHg 87%
    22:00 -3°C° 0 mm 4 mps 730 mmHg 86%
    23:00 -3°C° 0 mm 4 mps 730 mmHg 85%

    25 November, Saturday

    Time Temperature Precipitation Wind Pressure Humidity
    00:00 -3°C° 0 mm 4 mps 730 mmHg 84%
    01:00 -3°C° 0 mm 4 mps 730 mmHg 83%
    02:00 -4°C° 0 mm 5 mps 731 mmHg 82%
    03:00 -4°C° 0 mm 5 mps 731 mmHg 81%
    04:00 -2°C° 0 mm 5 mps 731 mmHg 80%
    05:00 -2°C° 0 mm 5 mps 731 mmHg 79%
    06:00 -2°C° 0 mm 5 mps 731 mmHg 79%
    07:00 -2°C° 0 mm 5 mps 732 mmHg 78%
    08:00 -3°C° 0 mm 6 mps 732 mmHg 77%
    09:00 -3°C° 0 mm 6 mps 732 mmHg 76%
    10:00 -2°C° 0 mm 6 mps 733 mmHg 72%
    11:00 -1°C° 0 mm 7 mps 733 mmHg 68%
    12:00 0°C° 0 mm 8 mps 733 mmHg 64%
    13:00 -1°C° 0 mm 7 mps 734 mmHg 66%
    14:00 -1°C° 0 mm 7 mps 734 mmHg 68%
    15:00 -1°C° 0 mm 7 mps 734 mmHg 70%
    16:00 -2°C° 0 mm 7 mps 734 mmHg 73%
    17:00 -2°C° 0 mm 7 mps 735 mmHg 76%
    18:00 -3°C° 0 mm 7 mps 735 mmHg 78%
    19:00 -3°C° 0 mm 7 mps 736 mmHg 78%
    20:00 -3°C° 0 mm 7 mps 736 mmHg 79%
    21:00 -3°C° 0 mm 7 mps 736 mmHg 79%
    22:00 -3°C° 0 mm 7 mps 737 mmHg 79%
    23:00 -3°C° 0 mm 7 mps 737 mmHg 79%
    Show more